TERRA (25994 NORAD) Tracking and Keplerian Element Data

This shows tracking and keplerian element data for the satellite.

Feedback or suggestion? Click here.




ElementValue
Catalog25994
NameTERRA
Epoch Orbit98828
Epoch Day198.81101738
Epoch Year2018
RAAN273.2348
Inclination98.2034
Eccentricity9.99E-05
Argument of Perigee75.8264
Mean Anonmoly284.3037
Mean Motion14.57113892
Decay Rate1.64E-06
L11 25994U 99068A 18198.81101738 .00000164 00000-0 46487-4 0 9991
L22 25994 98.2034 273.2348 0000999 75.8264 284.3037 14.57113892988288

Live tracking and technical data element details for TERRA (NORAD 25994). TERRA can be tracked NOW for your location showing map with azimuth and elevation plus other details from your city location.

Track the satellite on the map from your city or location and see movement details for azimuth, elevation, latitude, longitude, range, height, and movement on the map or in text.







IsCatalogInMostPopularTable: catalog: 25994, numindb: 34
Update: records affected: 1



GetName: 25994 TERRA

Hit Count: updated at: Thu, 19 Jul 2018 03:35:01 GMT